Location: Buchdorf
(48.7842°N, 10.8275°E)
Time: 18:18:53
(UTC+00:00)

Cosmos 1300 - Pass Details

Date: 09 April 2020
Orbit: 511 x 515 km, 82.5° (Epoch: 01 June)

Event Time Altitude Azimuth Distance (km) Brightness Sun altitude
Exits shadow 18:43:46 - 150° (SSE) 2,215 5.4 -7.7°
Reaches altitude 10° 18:45:08 10° 139° (SE) 1,738 4.8 -7.9°
Maximum altitude 18:48:06 22° 88° (E) 1,173 4.0 -8.4°
Drops below altitude 10° 18:51:04 10° 37° (NE) 1,752 5.2 -8.8°
Sets 18:53:33 0° 22° (NNE) 2,645 6.3 -9.2°
